Year,Month,Day,Hour,Minute,Value (Times are PST for insolation in W/m^2)
2008,01,31,00,00,0.00
2008,01,31,00,01,0.00
2008,01,31,00,02,0.00
2008,01,31,00,03,0.00
2008,01,31,00,04,0.00
2008,01,31,00,05,0.00
2008,01,31,00,06,0.00
2008,01,31,00,07,0.00
2008,01,31,00,08,0.00
2008,01,31,00,09,0.00
2008,01,31,00,10,0.00
2008,01,31,00,11,0.00
2008,01,31,00,12,0.00
2008,01,31,00,13,0.00
2008,01,31,00,14,0.00
2008,01,31,00,15,0.00
2008,01,31,00,16,0.00
2008,01,31,00,17,0.00
2008,01,31,00,18,0.00
2008,01,31,00,19,0.00
2008,01,31,00,20,0.00
2008,01,31,00,21,0.00
2008,01,31,00,22,0.00
2008,01,31,00,23,0.00
2008,01,31,00,24,0.00
2008,01,31,00,25,0.00
2008,01,31,00,26,0.00
2008,01,31,00,27,0.00
2008,01,31,00,28,0.00
2008,01,31,00,29,0.00
2008,01,31,00,30,0.00
2008,01,31,00,31,0.00
2008,01,31,00,32,0.00
2008,01,31,00,33,0.00
2008,01,31,00,34,0.00
2008,01,31,00,35,0.00
2008,01,31,00,36,0.00
2008,01,31,00,37,0.00
2008,01,31,00,38,0.00
2008,01,31,00,39,0.00
2008,01,31,00,40,0.00
2008,01,31,00,41,0.00
2008,01,31,00,42,0.00
2008,01,31,00,43,0.00
2008,01,31,00,44,0.00
2008,01,31,00,45,0.00
2008,01,31,00,46,0.00
2008,01,31,00,47,0.00
2008,01,31,00,48,0.00
2008,01,31,00,49,0.00
2008,01,31,00,50,0.00
2008,01,31,00,51,0.00
2008,01,31,00,52,0.00
2008,01,31,00,53,0.00
2008,01,31,00,54,0.00
2008,01,31,00,55,0.00
2008,01,31,00,56,0.00
2008,01,31,00,57,0.00
2008,01,31,00,58,0.00
2008,01,31,00,59,0.00
2008,01,31,01,00,0.00
2008,01,31,01,01,0.00
2008,01,31,01,02,0.00
2008,01,31,01,03,0.00
2008,01,31,01,04,0.00
2008,01,31,01,05,0.00
2008,01,31,01,06,0.00
2008,01,31,01,07,0.00
2008,01,31,01,08,0.00
2008,01,31,01,09,0.00
2008,01,31,01,10,0.00
2008,01,31,01,11,0.00
2008,01,31,01,12,0.00
2008,01,31,01,13,0.00
2008,01,31,01,14,0.00
2008,01,31,01,15,0.00
2008,01,31,01,16,0.00
2008,01,31,01,17,0.00
2008,01,31,01,18,0.00
2008,01,31,01,19,0.00
2008,01,31,01,20,0.00
2008,01,31,01,21,0.00
2008,01,31,01,22,0.00
2008,01,31,01,23,0.00
2008,01,31,01,24,0.00
2008,01,31,01,25,0.00
2008,01,31,01,26,0.00
2008,01,31,01,27,0.00
2008,01,31,01,28,0.00
2008,01,31,01,29,0.00
2008,01,31,01,30,0.00
2008,01,31,01,31,0.00
2008,01,31,01,32,0.00
2008,01,31,01,33,0.00
2008,01,31,01,34,0.00
2008,01,31,01,35,0.00
2008,01,31,01,36,0.00
2008,01,31,01,37,0.00
2008,01,31,01,38,0.00
2008,01,31,01,39,0.00
2008,01,31,01,40,0.00
2008,01,31,01,41,0.00
2008,01,31,01,42,0.00
2008,01,31,01,43,0.00
2008,01,31,01,44,0.00
2008,01,31,01,45,0.00
2008,01,31,01,46,0.00
2008,01,31,01,47,0.00
2008,01,31,01,48,0.00
2008,01,31,01,49,0.00
2008,01,31,01,50,0.00
2008,01,31,01,51,0.00
2008,01,31,01,52,0.00
2008,01,31,01,53,0.00
2008,01,31,01,54,0.00
2008,01,31,01,55,0.00
2008,01,31,01,56,0.00
2008,01,31,01,57,0.00
2008,01,31,01,58,0.00
2008,01,31,01,59,0.00
2008,01,31,02,00,0.00
2008,01,31,02,01,0.00
2008,01,31,02,02,0.00
2008,01,31,02,03,0.00
2008,01,31,02,04,0.00
2008,01,31,02,05,0.00
2008,01,31,02,06,0.00
2008,01,31,02,07,0.00
2008,01,31,02,08,0.00
2008,01,31,02,09,0.00
2008,01,31,02,10,0.00
2008,01,31,02,11,0.00
2008,01,31,02,12,0.00
2008,01,31,02,13,0.00
2008,01,31,02,14,0.00
2008,01,31,02,15,0.00
2008,01,31,02,16,0.00
2008,01,31,02,17,0.00
2008,01,31,02,18,0.00
2008,01,31,02,19,0.00
2008,01,31,02,20,0.00
2008,01,31,02,21,0.00
2008,01,31,02,22,0.00
2008,01,31,02,23,0.00
2008,01,31,02,24,0.00
2008,01,31,02,25,0.00
2008,01,31,02,26,0.00
2008,01,31,02,27,0.00
2008,01,31,02,28,0.00
2008,01,31,02,29,0.00
2008,01,31,02,30,0.00
2008,01,31,02,31,0.00
2008,01,31,02,32,0.00
2008,01,31,02,33,0.00
2008,01,31,02,34,0.00
2008,01,31,02,35,0.00
2008,01,31,02,36,0.00
2008,01,31,02,37,0.00
2008,01,31,02,38,0.00
2008,01,31,02,39,0.00
2008,01,31,02,40,0.00
2008,01,31,02,41,0.00
2008,01,31,02,42,0.00
2008,01,31,02,43,0.00
2008,01,31,02,44,0.00
2008,01,31,02,45,0.00
2008,01,31,02,46,0.00
2008,01,31,02,47,0.00
2008,01,31,02,48,0.00
2008,01,31,02,49,0.00
2008,01,31,02,50,0.00
2008,01,31,02,51,0.00
2008,01,31,02,52,0.00
2008,01,31,02,53,0.00
2008,01,31,02,54,0.00
2008,01,31,02,55,0.00
2008,01,31,02,56,0.00
2008,01,31,02,57,0.00
2008,01,31,02,58,0.00
2008,01,31,02,59,0.00
2008,01,31,03,00,0.00
2008,01,31,03,01,0.00
2008,01,31,03,02,0.00
2008,01,31,03,03,0.00
2008,01,31,03,04,0.00
2008,01,31,03,05,0.00
2008,01,31,03,06,0.00
2008,01,31,03,07,0.00
2008,01,31,03,08,0.00
2008,01,31,03,09,0.00
2008,01,31,03,10,0.00
2008,01,31,03,11,0.00
2008,01,31,03,12,0.00
2008,01,31,03,13,0.00
2008,01,31,03,14,0.00
2008,01,31,03,15,0.00
2008,01,31,03,16,0.00
2008,01,31,03,17,0.00
2008,01,31,03,18,0.00
2008,01,31,03,19,0.00
2008,01,31,03,20,0.00
2008,01,31,03,21,0.00
2008,01,31,03,22,0.00
2008,01,31,03,23,0.00
2008,01,31,03,24,0.00
2008,01,31,03,25,0.00
2008,01,31,03,26,0.00
2008,01,31,03,27,0.00
2008,01,31,03,28,0.00
2008,01,31,03,29,0.00
2008,01,31,03,30,0.00
2008,01,31,03,31,0.00
2008,01,31,03,32,0.00
2008,01,31,03,33,0.00
2008,01,31,03,34,0.00
2008,01,31,03,35,0.00
2008,01,31,03,36,0.00
2008,01,31,03,37,0.00
2008,01,31,03,38,0.00
2008,01,31,03,39,0.00
2008,01,31,03,40,0.00
2008,01,31,03,41,0.00
2008,01,31,03,42,0.00
2008,01,31,03,43,0.00
2008,01,31,03,44,0.00
2008,01,31,03,45,0.00
2008,01,31,03,46,0.00
2008,01,31,03,47,0.00
2008,01,31,03,48,0.00
2008,01,31,03,49,0.00
2008,01,31,03,50,0.00
2008,01,31,03,51,0.00
2008,01,31,03,52,0.00
2008,01,31,03,53,0.00
2008,01,31,03,54,0.00
2008,01,31,03,55,0.00
2008,01,31,03,56,0.00
2008,01,31,03,57,0.00
2008,01,31,03,58,0.00
2008,01,31,03,59,0.00
2008,01,31,04,00,0.00
2008,01,31,04,01,0.00
2008,01,31,04,02,0.00
2008,01,31,04,03,0.00
2008,01,31,04,04,0.00
2008,01,31,04,05,0.00
2008,01,31,04,06,0.00
2008,01,31,04,07,0.00
2008,01,31,04,08,0.00
2008,01,31,04,09,0.00
2008,01,31,04,10,0.00
2008,01,31,04,11,0.00
2008,01,31,04,12,0.00
2008,01,31,04,13,0.00
2008,01,31,04,14,0.00
2008,01,31,04,15,0.00
2008,01,31,04,16,0.00
2008,01,31,04,17,0.00
2008,01,31,04,18,0.00
2008,01,31,04,19,0.00
2008,01,31,04,20,0.00
2008,01,31,04,21,0.00
2008,01,31,04,22,0.00
2008,01,31,04,23,0.00
2008,01,31,04,24,0.00
2008,01,31,04,25,0.00
2008,01,31,04,26,0.00
2008,01,31,04,27,0.00
2008,01,31,04,28,0.00
2008,01,31,04,29,0.00
2008,01,31,04,30,0.00
2008,01,31,04,31,0.00
2008,01,31,04,32,0.00
2008,01,31,04,33,0.00
2008,01,31,04,34,0.00
2008,01,31,04,35,0.00
2008,01,31,04,36,0.00
2008,01,31,04,37,0.00
2008,01,31,04,38,0.00
2008,01,31,04,39,0.00
2008,01,31,04,40,0.00
2008,01,31,04,41,0.00
2008,01,31,04,42,0.00
2008,01,31,04,43,0.00
2008,01,31,04,44,0.00
2008,01,31,04,45,0.00
2008,01,31,04,46,0.00
2008,01,31,04,47,0.00
2008,01,31,04,48,0.00
2008,01,31,04,49,0.00
2008,01,31,04,50,0.00
2008,01,31,04,51,0.00
2008,01,31,04,52,0.00
2008,01,31,04,53,0.00
2008,01,31,04,54,0.00
2008,01,31,04,55,0.00
2008,01,31,04,56,0.00
2008,01,31,04,57,0.00
2008,01,31,04,58,0.00
2008,01,31,04,59,0.00
2008,01,31,05,00,0.00
2008,01,31,05,01,0.00
2008,01,31,05,02,0.00
2008,01,31,05,03,0.00
2008,01,31,05,04,0.00
2008,01,31,05,05,0.00
2008,01,31,05,06,0.00
2008,01,31,05,07,0.00
2008,01,31,05,08,0.00
2008,01,31,05,09,0.00
2008,01,31,05,10,0.00
2008,01,31,05,11,0.00
2008,01,31,05,12,0.00
2008,01,31,05,13,0.00
2008,01,31,05,14,0.00
2008,01,31,05,15,0.00
2008,01,31,05,16,0.00
2008,01,31,05,17,0.00
2008,01,31,05,18,0.00
2008,01,31,05,19,0.00
2008,01,31,05,20,0.00
2008,01,31,05,21,0.00
2008,01,31,05,22,0.00
2008,01,31,05,23,0.00
2008,01,31,05,24,0.00
2008,01,31,05,25,0.00
2008,01,31,05,26,0.00
2008,01,31,05,27,0.00
2008,01,31,05,28,0.00
2008,01,31,05,29,0.00
2008,01,31,05,30,0.00
2008,01,31,05,31,0.00
2008,01,31,05,32,0.00
2008,01,31,05,33,0.00
2008,01,31,05,34,0.00
2008,01,31,05,35,0.00
2008,01,31,05,36,0.00
2008,01,31,05,37,0.00
2008,01,31,05,38,0.00
2008,01,31,05,39,0.00
2008,01,31,05,40,0.00
2008,01,31,05,41,0.00
2008,01,31,05,42,0.00
2008,01,31,05,43,0.00
2008,01,31,05,44,0.00
2008,01,31,05,45,0.00
2008,01,31,05,46,0.00
2008,01,31,05,47,0.00
2008,01,31,05,48,0.00
2008,01,31,05,49,0.00
2008,01,31,05,50,0.00
2008,01,31,05,51,0.00
2008,01,31,05,52,0.00
2008,01,31,05,53,0.00
2008,01,31,05,54,0.00
2008,01,31,05,55,0.00
2008,01,31,05,56,0.00
2008,01,31,05,57,0.00
2008,01,31,05,58,0.00
2008,01,31,05,59,0.00
2008,01,31,06,00,0.00
2008,01,31,06,01,0.00
2008,01,31,06,02,0.00
2008,01,31,06,03,0.00
2008,01,31,06,04,0.00
2008,01,31,06,05,0.00
2008,01,31,06,06,0.00
2008,01,31,06,07,0.00
2008,01,31,06,08,0.00
2008,01,31,06,09,0.00
2008,01,31,06,10,0.00
2008,01,31,06,11,0.00
2008,01,31,06,12,0.00
2008,01,31,06,13,0.00
2008,01,31,06,14,0.00
2008,01,31,06,15,0.00
2008,01,31,06,16,0.00
2008,01,31,06,17,0.00
2008,01,31,06,18,0.00
2008,01,31,06,19,0.00
2008,01,31,06,20,0.00
2008,01,31,06,21,0.00
2008,01,31,06,22,0.00
2008,01,31,06,23,0.00
2008,01,31,06,24,0.00
2008,01,31,06,25,0.00
2008,01,31,06,26,0.00
2008,01,31,06,27,0.00
2008,01,31,06,28,0.00
2008,01,31,06,29,0.00
2008,01,31,06,30,0.00
2008,01,31,06,31,0.00
2008,01,31,06,32,0.00
2008,01,31,06,33,0.00
2008,01,31,06,34,0.00
2008,01,31,06,35,0.00
2008,01,31,06,36,0.00
2008,01,31,06,37,0.00
2008,01,31,06,38,0.00
2008,01,31,06,39,0.00
2008,01,31,06,40,0.00
2008,01,31,06,41,0.00
2008,01,31,06,42,0.00
2008,01,31,06,43,0.00
2008,01,31,06,44,0.00
2008,01,31,06,45,0.00
2008,01,31,06,46,0.00
2008,01,31,06,47,0.00
2008,01,31,06,48,0.00
2008,01,31,06,49,0.00
2008,01,31,06,50,0.00
2008,01,31,06,51,0.00
2008,01,31,06,52,0.00
2008,01,31,06,53,0.00
2008,01,31,06,54,0.00
2008,01,31,06,55,0.00
2008,01,31,06,56,0.00
2008,01,31,06,57,0.00
2008,01,31,06,58,0.00
2008,01,31,06,59,0.00
2008,01,31,07,00,0.00
2008,01,31,07,01,0.00
2008,01,31,07,02,0.00
2008,01,31,07,03,0.00
2008,01,31,07,04,0.00
2008,01,31,07,05,0.00
2008,01,31,07,06,0.00
2008,01,31,07,07,0.00
2008,01,31,07,08,0.00
2008,01,31,07,09,0.00
2008,01,31,07,10,0.00
2008,01,31,07,11,0.00
2008,01,31,07,12,0.00
2008,01,31,07,13,0.00
2008,01,31,07,14,0.00
2008,01,31,07,15,0.00
2008,01,31,07,16,0.00
2008,01,31,07,17,0.00
2008,01,31,07,18,0.00
2008,01,31,07,19,0.00
2008,01,31,07,20,0.00
2008,01,31,07,21,0.00
2008,01,31,07,22,0.00
2008,01,31,07,23,0.00
2008,01,31,07,24,0.00
2008,01,31,07,25,0.00
2008,01,31,07,26,0.00
2008,01,31,07,27,0.00
2008,01,31,07,28,0.00
2008,01,31,07,29,0.00
2008,01,31,07,30,0.00
2008,01,31,07,31,0.00
2008,01,31,07,32,0.00
2008,01,31,07,33,0.00
2008,01,31,07,34,0.00
2008,01,31,07,35,0.00
2008,01,31,07,36,0.00
2008,01,31,07,37,0.00
2008,01,31,07,38,0.00
2008,01,31,07,39,0.00
2008,01,31,07,40,0.00
2008,01,31,07,41,0.00
2008,01,31,07,42,0.00
2008,01,31,07,43,0.00
2008,01,31,07,44,0.00
2008,01,31,07,45,0.00
2008,01,31,07,46,0.00
2008,01,31,07,47,0.00
2008,01,31,07,48,0.00
2008,01,31,07,49,0.00
2008,01,31,07,50,0.00
2008,01,31,07,51,0.00
2008,01,31,07,52,0.00
2008,01,31,07,53,0.00
2008,01,31,07,54,0.00
2008,01,31,07,55,0.00
2008,01,31,07,56,0.00
2008,01,31,07,57,0.00
2008,01,31,07,58,0.00
2008,01,31,07,59,0.00
2008,01,31,08,00,0.00
2008,01,31,08,01,0.00
2008,01,31,08,02,0.00
2008,01,31,08,03,0.00
2008,01,31,08,04,0.00
2008,01,31,08,05,0.00
2008,01,31,08,06,0.00
2008,01,31,08,07,0.00
2008,01,31,08,08,0.00
2008,01,31,08,09,0.00
2008,01,31,08,10,0.00
2008,01,31,08,11,0.00
2008,01,31,08,12,0.60
2008,01,31,08,13,5.20
2008,01,31,08,14,7.00
2008,01,31,08,15,7.40
2008,01,31,08,16,9.40
2008,01,31,08,17,11.00
2008,01,31,08,18,12.20
2008,01,31,08,19,16.60
2008,01,31,08,20,18.30
2008,01,31,08,21,19.60
2008,01,31,08,22,21.00
2008,01,31,08,23,21.00
2008,01,31,08,24,21.00
2008,01,31,08,25,21.00
2008,01,31,08,26,21.00
2008,01,31,08,27,21.00
2008,01,31,08,28,21.00
2008,01,31,08,29,21.00
2008,01,31,08,30,22.20
2008,01,31,08,31,24.20
2008,01,31,08,32,26.80
2008,01,31,08,33,29.20
2008,01,31,08,34,32.80
2008,01,31,08,35,37.80
2008,01,31,08,36,42.50
2008,01,31,08,37,47.80
2008,01,31,08,38,52.80
2008,01,31,08,39,57.20
2008,01,31,08,40,61.20
2008,01,31,08,41,62.80
2008,01,31,08,42,64.80
2008,01,31,08,43,66.40
2008,01,31,08,44,68.80
2008,01,31,08,45,69.00
2008,01,31,08,46,66.00
2008,01,31,08,47,62.00
2008,01,31,08,48,56.00
2008,01,31,08,49,56.00
2008,01,31,08,50,56.00
2008,01,31,08,51,42.00
2008,01,31,08,52,37.00
2008,01,31,08,53,33.00
2008,01,31,08,54,32.00
2008,01,31,08,55,30.10
2008,01,31,08,56,26.00
2008,01,31,08,57,25.00
2008,01,31,08,58,22.90
2008,01,31,08,59,20.80
2008,01,31,09,00,19.00
2008,01,31,09,01,18.90
2008,01,31,09,02,18.00
2008,01,31,09,03,18.00
2008,01,31,09,04,18.10
2008,01,31,09,05,19.00
2008,01,31,09,06,19.50
2008,01,31,09,07,21.00
2008,01,31,09,08,22.20
2008,01,31,09,09,26.60
2008,01,31,09,10,27.20
2008,01,31,09,11,25.00
2008,01,31,09,12,23.00
2008,01,31,09,13,23.00
2008,01,31,09,14,22.30
2008,01,31,09,15,18.50
2008,01,31,09,16,14.80
2008,01,31,09,17,14.00
2008,01,31,09,18,14.00
2008,01,31,09,19,14.00
2008,01,31,09,20,20.00
2008,01,31,09,21,26.00
2008,01,31,09,22,25.30
2008,01,31,09,23,22.20
2008,01,31,09,24,19.20
2008,01,31,09,25,18.00
2008,01,31,09,26,21.80
2008,01,31,09,27,26.80
2008,01,31,09,28,32.10
2008,01,31,09,29,42.10
2008,01,31,09,30,56.60
2008,01,31,09,31,58.00
2008,01,31,09,32,64.60
2008,01,31,09,33,62.20
2008,01,31,09,34,62.00
2008,01,31,09,35,49.90
2008,01,31,09,36,47.00
2008,01,31,09,37,42.00
2008,01,31,09,38,46.00
2008,01,31,09,39,46.00
2008,01,31,09,40,46.00
2008,01,31,09,41,62.00
2008,01,31,09,42,66.80
2008,01,31,09,43,69.00
2008,01,31,09,44,69.20
2008,01,31,09,45,72.30
2008,01,31,09,46,77.90
2008,01,31,09,47,84.50
2008,01,31,09,48,88.20
2008,01,31,09,49,90.20
2008,01,31,09,50,91.00
2008,01,31,09,51,91.00
2008,01,31,09,52,90.20
2008,01,31,09,53,86.90
2008,01,31,09,54,83.70
2008,01,31,09,55,83.30
2008,01,31,09,56,84.50
2008,01,31,09,57,86.00
2008,01,31,09,58,84.90
2008,01,31,09,59,81.20
2008,01,31,10,00,76.80
2008,01,31,10,01,71.90
2008,01,31,10,02,68.50
2008,01,31,10,03,65.90
2008,01,31,10,04,65.00
2008,01,31,10,05,65.00
2008,01,31,10,06,62.50
2008,01,31,10,07,60.00
2008,01,31,10,08,60.00
2008,01,31,10,09,60.00
2008,01,31,10,10,54.90
2008,01,31,10,11,53.20
2008,01,31,10,12,55.20
2008,01,31,10,13,56.00
2008,01,31,10,14,57.60
2008,01,31,10,15,61.50
2008,01,31,10,16,62.00
2008,01,31,10,17,62.00
2008,01,31,10,18,68.10
2008,01,31,10,19,67.10
2008,01,31,10,20,67.00
2008,01,31,10,21,69.00
2008,01,31,10,22,69.00
2008,01,31,10,23,72.00
2008,01,31,10,24,72.00
2008,01,31,10,25,72.00
2008,01,31,10,26,84.00
2008,01,31,10,27,84.00
2008,01,31,10,28,86.00
2008,01,31,10,29,84.10
2008,01,31,10,30,84.00
2008,01,31,10,31,83.00
2008,01,31,10,32,75.60
2008,01,31,10,33,69.60
2008,01,31,10,34,66.50
2008,01,31,10,35,63.00
2008,01,31,10,36,63.50
2008,01,31,10,37,67.40
2008,01,31,10,38,71.50
2008,01,31,10,39,76.00
2008,01,31,10,40,75.00
2008,01,31,10,41,70.50
2008,01,31,10,42,68.60
2008,01,31,10,43,74.00
2008,01,31,10,44,83.90
2008,01,31,10,45,98.20
2008,01,31,10,46,110.80
2008,01,31,10,47,118.00
2008,01,31,10,48,126.50
2008,01,31,10,49,136.50
2008,01,31,10,50,140.70
2008,01,31,10,51,142.00
2008,01,31,10,52,145.40
2008,01,31,10,53,150.10
2008,01,31,10,54,152.40
2008,01,31,10,55,154.40
2008,01,31,10,56,155.00
2008,01,31,10,57,155.00
2008,01,31,10,58,155.00
2008,01,31,10,59,155.00
2008,01,31,11,00,155.00
2008,01,31,11,01,155.00
2008,01,31,11,02,155.00
2008,01,31,11,03,153.20
2008,01,31,11,04,151.20
2008,01,31,11,05,151.00
2008,01,31,11,06,148.20
2008,01,31,11,07,148.00
2008,01,31,11,08,148.80
2008,01,31,11,09,149.00
2008,01,31,11,10,151.00
2008,01,31,11,11,151.00
2008,01,31,11,12,148.00
2008,01,31,11,13,148.00
2008,01,31,11,14,148.00
2008,01,31,11,15,148.00
2008,01,31,11,16,144.20
2008,01,31,11,17,142.00
2008,01,31,11,18,138.90
2008,01,31,11,19,137.00
2008,01,31,11,20,137.00
2008,01,31,11,21,137.20
2008,01,31,11,22,139.40
2008,01,31,11,23,142.30
2008,01,31,11,24,144.80
2008,01,31,11,25,148.80
2008,01,31,11,26,151.50
2008,01,31,11,27,153.50
2008,01,31,11,28,155.20
2008,01,31,11,29,156.60
2008,01,31,11,30,159.10
2008,01,31,11,31,163.90
2008,01,31,11,32,164.90
2008,01,31,11,33,160.20
2008,01,31,11,34,157.20
2008,01,31,11,35,155.60
2008,01,31,11,36,155.00
2008,01,31,11,37,154.10
2008,01,31,11,38,150.80
2008,01,31,11,39,147.50
2008,01,31,11,40,144.80
2008,01,31,11,41,144.00
2008,01,31,11,42,145.20
2008,01,31,11,43,142.60
2008,01,31,11,44,136.90
2008,01,31,11,45,135.00
2008,01,31,11,46,139.50
2008,01,31,11,47,141.00
2008,01,31,11,48,141.00
2008,01,31,11,49,141.00
2008,01,31,11,50,176.80
2008,01,31,11,51,158.00
2008,01,31,11,52,162.40
2008,01,31,11,53,175.20
2008,01,31,11,54,185.10
2008,01,31,11,55,189.90
2008,01,31,11,56,186.00
2008,01,31,11,57,176.00
2008,01,31,11,58,176.00
2008,01,31,11,59,258.00
2008,01,31,12,00,193.00
2008,01,31,12,01,209.30
2008,01,31,12,02,213.00
2008,01,31,12,03,237.80
2008,01,31,12,04,239.00
2008,01,31,12,05,239.00
2008,01,31,12,06,244.70
2008,01,31,12,07,326.10
2008,01,31,12,08,266.50
2008,01,31,12,09,267.00
2008,01,31,12,10,302.20
2008,01,31,12,11,305.00
2008,01,31,12,12,299.00
2008,01,31,12,13,259.20
2008,01,31,12,14,257.00
2008,01,31,12,15,253.00
2008,01,31,12,16,236.00
2008,01,31,12,17,219.80
2008,01,31,12,18,209.80
2008,01,31,12,19,210.40
2008,01,31,12,20,209.00
2008,01,31,12,21,209.00
2008,01,31,12,22,209.00
2008,01,31,12,23,209.00
2008,01,31,12,24,209.00
2008,01,31,12,25,194.40
2008,01,31,12,26,174.40
2008,01,31,12,27,162.90
2008,01,31,12,28,150.50
2008,01,31,12,29,139.00
2008,01,31,12,30,132.00
2008,01,31,12,31,183.70
2008,01,31,12,32,178.40
2008,01,31,12,33,192.00
2008,01,31,12,34,207.80
2008,01,31,12,35,222.00
2008,01,31,12,36,226.40
2008,01,31,12,37,227.00
2008,01,31,12,38,240.30
2008,01,31,12,39,246.00
2008,01,31,12,40,223.00
2008,01,31,12,41,220.20
2008,01,31,12,42,255.00
2008,01,31,12,43,255.00
2008,01,31,12,44,274.00
2008,01,31,12,45,285.10
2008,01,31,12,46,311.00
2008,01,31,12,47,306.00
2008,01,31,12,48,322.00
2008,01,31,12,49,373.00
2008,01,31,12,50,386.30
2008,01,31,12,51,387.00
2008,01,31,12,52,503.00
2008,01,31,12,53,533.20
2008,01,31,12,54,482.00
2008,01,31,12,55,483.00
2008,01,31,12,56,502.90
2008,01,31,12,57,516.70
2008,01,31,12,58,502.60
2008,01,31,12,59,527.00
2008,01,31,13,00,527.00
2008,01,31,13,01,527.00
2008,01,31,13,02,509.90
2008,01,31,13,03,469.00
2008,01,31,13,04,469.00
2008,01,31,13,05,538.40
2008,01,31,13,06,654.00
2008,01,31,13,07,654.00
2008,01,31,13,08,654.00
2008,01,31,13,09,654.00
2008,01,31,13,10,654.00
2008,01,31,13,11,654.00
2008,01,31,13,12,458.20
2008,01,31,13,13,306.00
2008,01,31,13,14,424.10
2008,01,31,13,15,554.00
2008,01,31,13,16,554.00
2008,01,31,13,17,554.00
2008,01,31,13,18,554.00
2008,01,31,13,19,505.10
2008,01,31,13,20,462.60
2008,01,31,13,21,427.50
2008,01,31,13,22,435.40
2008,01,31,13,23,439.00
2008,01,31,13,24,439.00
2008,01,31,13,25,413.80
2008,01,31,13,26,396.40
2008,01,31,13,27,392.00
2008,01,31,13,28,385.00
2008,01,31,13,29,385.00
2008,01,31,13,30,385.00
2008,01,31,13,31,148.00
2008,01,31,13,32,174.00
2008,01,31,13,33,174.00
2008,01,31,13,34,174.00
2008,01,31,13,35,321.60
2008,01,31,13,36,408.00
2008,01,31,13,37,312.80
2008,01,31,13,38,380.00
2008,01,31,13,39,380.00
2008,01,31,13,40,380.00
2008,01,31,13,41,371.30
2008,01,31,13,42,241.00
2008,01,31,13,43,254.10
2008,01,31,13,44,348.90
2008,01,31,13,45,376.10
2008,01,31,13,46,427.00
2008,01,31,13,47,456.40
2008,01,31,13,48,461.30
2008,01,31,13,49,463.20
2008,01,31,13,50,465.40
2008,01,31,13,51,461.10
2008,01,31,13,52,443.10
2008,01,31,13,53,416.20
2008,01,31,13,54,413.00
2008,01,31,13,55,420.00
2008,01,31,13,56,420.00
2008,01,31,13,57,420.00
2008,01,31,13,58,427.60
2008,01,31,13,59,438.50
2008,01,31,14,00,438.00
2008,01,31,14,01,438.00
2008,01,31,14,02,394.50
2008,01,31,14,03,353.60
2008,01,31,14,04,360.40
2008,01,31,14,05,391.70
2008,01,31,14,06,410.20
2008,01,31,14,07,410.90
2008,01,31,14,08,411.00
2008,01,31,14,09,411.00
2008,01,31,14,10,411.00
2008,01,31,14,11,411.00
2008,01,31,14,12,411.00
2008,01,31,14,13,211.60
2008,01,31,14,14,194.40
2008,01,31,14,15,178.00
2008,01,31,14,16,185.00
2008,01,31,14,17,200.20
2008,01,31,14,18,204.00
2008,01,31,14,19,204.00
2008,01,31,14,20,221.00
2008,01,31,14,21,218.00
2008,01,31,14,22,208.10
2008,01,31,14,23,207.00
2008,01,31,14,24,226.00
2008,01,31,14,25,232.00
2008,01,31,14,26,244.00
2008,01,31,14,27,245.20
2008,01,31,14,28,270.10
2008,01,31,14,29,275.80
2008,01,31,14,30,239.60
2008,01,31,14,31,245.60
2008,01,31,14,32,253.70
2008,01,31,14,33,242.40
2008,01,31,14,34,220.00
2008,01,31,14,35,220.30
2008,01,31,14,36,214.50
2008,01,31,14,37,193.80
2008,01,31,14,38,185.80
2008,01,31,14,39,171.90
2008,01,31,14,40,162.40
2008,01,31,14,41,154.90
2008,01,31,14,42,149.70
2008,01,31,14,43,146.50
2008,01,31,14,44,142.50
2008,01,31,14,45,137.60
2008,01,31,14,46,131.50
2008,01,31,14,47,124.70
2008,01,31,14,48,121.10
2008,01,31,14,49,118.80
2008,01,31,14,50,119.00
2008,01,31,14,51,120.00
2008,01,31,14,52,120.00
2008,01,31,14,53,125.20
2008,01,31,14,54,127.00
2008,01,31,14,55,127.00
2008,01,31,14,56,127.00
2008,01,31,14,57,127.00
2008,01,31,14,58,127.00
2008,01,31,14,59,137.00
2008,01,31,15,00,135.10
2008,01,31,15,01,135.00
2008,01,31,15,02,141.60
2008,01,31,15,03,142.00
2008,01,31,15,04,171.00
2008,01,31,15,05,171.00
2008,01,31,15,06,209.00
2008,01,31,15,07,209.00
2008,01,31,15,08,209.00
2008,01,31,15,09,209.00
2008,01,31,15,10,174.00
2008,01,31,15,11,148.00
2008,01,31,15,12,123.30
2008,01,31,15,13,103.40
2008,01,31,15,14,92.70
2008,01,31,15,15,87.70
2008,01,31,15,16,85.80
2008,01,31,15,17,84.00
2008,01,31,15,18,83.90
2008,01,31,15,19,83.00
2008,01,31,15,20,81.40
2008,01,31,15,21,75.00
2008,01,31,15,22,71.40
2008,01,31,15,23,69.00
2008,01,31,15,24,69.90
2008,01,31,15,25,72.60
2008,01,31,15,26,75.30
2008,01,31,15,27,79.20
2008,01,31,15,28,83.40
2008,01,31,15,29,84.90
2008,01,31,15,30,86.90
2008,01,31,15,31,88.80
2008,01,31,15,32,91.20
2008,01,31,15,33,100.20
2008,01,31,15,34,101.90
2008,01,31,15,35,98.00
2008,01,31,15,36,92.50
2008,01,31,15,37,90.70
2008,01,31,15,38,93.80
2008,01,31,15,39,95.00
2008,01,31,15,40,93.40
2008,01,31,15,41,93.00
2008,01,31,15,42,85.70
2008,01,31,15,43,84.00
2008,01,31,15,44,72.50
2008,01,31,15,45,67.40
2008,01,31,15,46,65.00
2008,01,31,15,47,65.00
2008,01,31,15,48,60.30
2008,01,31,15,49,60.00
2008,01,31,15,50,62.00
2008,01,31,15,51,62.00
2008,01,31,15,52,63.00
2008,01,31,15,53,65.00
2008,01,31,15,54,65.00
2008,01,31,15,55,62.00
2008,01,31,15,56,62.00
2008,01,31,15,57,62.00
2008,01,31,15,58,62.00
2008,01,31,15,59,63.00
2008,01,31,16,00,63.00
2008,01,31,16,01,63.00
2008,01,31,16,02,63.00
2008,01,31,16,03,62.60
2008,01,31,16,04,60.00
2008,01,31,16,05,60.00
2008,01,31,16,06,59.70
2008,01,31,16,07,57.70
2008,01,31,16,08,55.40
2008,01,31,16,09,52.20
2008,01,31,16,10,49.00
2008,01,31,16,11,47.40
2008,01,31,16,12,44.00
2008,01,31,16,13,44.00
2008,01,31,16,14,44.00
2008,01,31,16,15,40.10
2008,01,31,16,16,34.10
2008,01,31,16,17,33.80
2008,01,31,16,18,35.00
2008,01,31,16,19,35.00
2008,01,31,16,20,33.00
2008,01,31,16,21,29.10
2008,01,31,16,22,27.00
2008,01,31,16,23,25.40
2008,01,31,16,24,23.60
2008,01,31,16,25,21.60
2008,01,31,16,26,19.60
2008,01,31,16,27,19.00
2008,01,31,16,28,18.20
2008,01,31,16,29,16.30
2008,01,31,16,30,14.70
2008,01,31,16,31,14.00
2008,01,31,16,32,14.00
2008,01,31,16,33,14.00
2008,01,31,16,34,14.00
2008,01,31,16,35,14.00
2008,01,31,16,36,14.00
2008,01,31,16,37,14.00
2008,01,31,16,38,14.00
2008,01,31,16,39,12.00
2008,01,31,16,40,12.00
2008,01,31,16,41,12.00
2008,01,31,16,42,12.00
2008,01,31,16,43,12.00
2008,01,31,16,44,12.00
2008,01,31,16,45,11.00
2008,01,31,16,46,11.00
2008,01,31,16,47,9.00
2008,01,31,16,48,9.00
2008,01,31,16,49,8.90
2008,01,31,16,50,7.00
2008,01,31,16,51,7.00
2008,01,31,16,52,7.00
2008,01,31,16,53,6.60
2008,01,31,16,54,5.00
2008,01,31,16,55,5.00
2008,01,31,16,56,5.00
2008,01,31,16,57,3.20
2008,01,31,16,58,0.00
2008,01,31,16,59,0.00
2008,01,31,17,00,0.00
2008,01,31,17,01,0.00
2008,01,31,17,02,0.00
2008,01,31,17,03,0.00
2008,01,31,17,04,0.00
2008,01,31,17,05,0.00
2008,01,31,17,06,0.00
2008,01,31,17,07,0.00
2008,01,31,17,08,0.00
2008,01,31,17,09,0.00
2008,01,31,17,10,0.00
2008,01,31,17,11,0.00
2008,01,31,17,12,0.00
2008,01,31,17,13,0.00
2008,01,31,17,14,0.00
2008,01,31,17,15,0.00
2008,01,31,17,16,0.00
2008,01,31,17,17,0.00
2008,01,31,17,18,0.00
2008,01,31,17,19,0.00
2008,01,31,17,20,0.00
2008,01,31,17,21,0.00
2008,01,31,17,22,0.00
2008,01,31,17,23,0.00
2008,01,31,17,24,0.00
2008,01,31,17,25,0.00
2008,01,31,17,26,0.00
2008,01,31,17,27,0.00
2008,01,31,17,28,0.00
2008,01,31,17,29,0.00
2008,01,31,17,30,0.00
2008,01,31,17,31,0.00